Location: Chamerau
(49.1969°N, 12.7525°E)
Time: 14:14:05
(UTC+00:00)

Cosmos 1048 Rocket - Pass Details

Date: 18 September 2020
Orbit: 742 x 792 km, 74.0° (Epoch: 24 October)

Event Time Altitude Azimuth Distance (km) Brightness Sun altitude
Rises 19:23:54 0° 334° (NNW) 3,257 8.2 -21.0°
Reaches altitude 10° 19:26:18 10° 331° (NNW) 2,333 7.3 -21.3°
Maximum altitude 19:31:31 61° 252° (WSW) 887 4.4 -22.1°
Enters shadow 19:34:11 29° 182° (S) 1,415 5.1 -22.4°
